Location: *
(51.5000°N, 0.1100°W)
Time: 06:52:32
(UTC+00:00)

Cosmos 1025 Rocket - Pass Details

Date: 07 August 2024
Orbit: 590 x 612 km, 82.5° (Epoch: 07 September)

Event Time Altitude Azimuth Distance (km) Brightness Sun altitude
Rises 03:28:47 0° 359° (N) 2,886 7.1 -9.2°
Reaches altitude 10° 03:31:31 10° 16° (NNE) 1,979 6.6 -8.9°
Maximum altitude 03:34:48 20° 65° (ENE) 1,420 6.1 -8.5°
Drops below altitude 10° 03:38:04 10° 114° (ESE) 1,973 6.0 -8.1°
Sets 03:40:47 0° 131° (SE) 2,874 6.6 -7.7°
